Location: Dallas
(32.7833°N, 96.8000°W)
Time: 00:40:55
(UTC-05:00)

ISS - Pass Details

Date: 14 January 2018
Orbit: 411 x 421 km, 51.6° (Epoch: 16 October)

Event Time Altitude Azimuth Distance (km) Brightness Sun altitude
Maximum altitude 05:42:27 41° 40° (NE) 632 -2.7 -22.3°
Exits shadow 05:42:27 41° 41° (NE) 632 -2.7 -22.3°
Drops below altitude 10° 05:45:40 10° 112° (ESE) 1,507 0.2 -21.6°
Enters shadow 06:40:38 -71° 323° (NW) 12,499 3.6 -10.5°
